This demonstration page uses our WeatherBlox Daily Observations layout. Learn more.

Left ArrowRight Arrow

41.86663, -103.66717

Hourly Observations for October 27, 2020

Temp ( °F °C ) Dew Point ( °F °C ) Humidity (%) Winds ( mph kmh ) Pressure ( in mb ) Visibility ( mi km ) Precip ( " mm )
12:53 am 00:53 Clear -5 -20.6 -9 -22.8 83 83 WNW 8 13 30.42 1030 10 16 0.00 0.00
1:53 am 01:53 Clear -9 -22.8 -12 -24.4 87 87 Calm 30.42 1030 10 16 0.00 0.00
2:53 am 02:53 Clear -8 -22.2 -10 -23.3 91 91 WNW 8 13 30.42 1030 10 16 0.00 0.00
3:53 am 03:53 Clear -8 -22.2 -12 -24.4 82 82 WNW 9 15 30.39 1029 10 16 0.00 0.00
4:53 am 04:53 Clear -9 -22.8 -12 -24.4 87 87 WNW 7 11 30.41 1030 10 16 0.00 0.00
5:53 am 05:53 Clear -8 -22.2 -12 -24.4 82 82 NW 12 19 30.41 1030 10 16 0.00 0.00
6:53 am 06:53 Clear -9 -22.8 -12 -24.4 87 87 W 6 9 30.42 1030 10 16 0.00 0.00
7:53 am 07:53 Sunny -8 -22.2 -12 -24.4 82 82 Calm 30.43 1031 9 14 0.00 0.00
8:53 am 08:53 Sunny -2 -18.9 -6 -21.1 83 83 NW 6 9 30.40 1030 9 14 0.00 0.00
9:53 am 09:53 Sunny 5 -15 1 -17.2 83 83 NNW 5 7 30.41 1030 9 14 0.00 0.00
10:53 am 10:53 Sunny 8 -13.3 6 -14.4 92 92 SSW 3 6 30.38 1029 10 16 0.00 0.00
11:53 am 11:53 Sunny 16 -8.9 9 -12.8 74 74 S 5 7 30.35 1028 10 16 0.00 0.00
12:53 pm 12:53 Sunny 20 -6.7 11 -11.7 68 68 SSE 6 9 30.33 1027 10 16 0.00 0.00
1:53 pm 13:53 Sunny 26 -3.3 12 -11.1 55 55 Calm 30.30 1026 10 16 0.00 0.00
2:53 pm 14:53 Sunny 30 -1.1 15 -9.4 54 54 N 5 7 30.26 1025 10 16 0.00 0.00
3:53 pm 15:53 Sunny 32 0 18 -7.8 56 56 WNW 6 9 30.24 1024 10 16 0.00 0.00
4:53 pm 16:53 Sunny 29 -1.7 18 -7.8 63 63 WNW 8 13 30.26 1025 8 13 0.00 0.00
5:53 pm 17:53 Sunny 26 -3.3 17 -8.3 69 69 NNW 5 7 30.25 1024 9 14 0.00 0.00
6:53 pm 18:53 Clear 23 -5 16 -8.9 74 74 undefined N/A 30.27 1025 10 16 0.00 0.00
7:53 pm 19:53 Clear 23 -5 17 -8.3 78 78 WNW 7 11 30.27 1025 10 16 0.00 0.00
8:53 pm 20:53 Clear 23 -5 17 -8.3 78 78 NW 10 17 30.25 1025 10 16 0.00 0.00
9:53 pm 21:53 Clear 23 -5 18 -7.8 81 81 NW 10 17 30.25 1024 10 16 0.00 0.00
10:53 pm 22:53 Clear 24 -4.4 18 -7.8 77 77 NW 9 15 30.24 1024 10 16 0.00 0.00
11:53 pm 23:53 Clear 25 -3.9 19 -7.2 78 78 NNW 14 22 30.20 1023 10 16 0.00 0.00

Powered by AerisWeather